Simultaneous Nadir Overpasses (SNOs) Predictions

Prediction of SNOs between NOAA-19 and TERRA Satellite Orbit:

Table of predicted SNOs for the next 14.0 days since TLE Epoch: 1/14/2012
Index Date Time (NOAA-19) NOAA-19 Lat,Lon TERRA Lat,Lon Distance(km) Time Diff (sec)
1 01/16/2012 05:41:51 70.46, 91.62 70.37, 95.42 141.68 62
2 01/16/2012 06:32:22 -68.97, -98.89 -68.99, -98.84 2.89 24
3 01/16/2012 07:23:25 68.79, 68.58 68.77, 68.53 3.43 70
4 01/16/2012 08:13:19 -65.30,-120.05 -65.35,-127.55 348.18 35
5 01/18/2012 09:36:37 -73.55,-152.84 -73.52,-137.76 473.95 8
6 01/18/2012 10:26:19 69.29, 22.19 69.21, 22.74 23.58 71
7 01/18/2012 11:17:12 -68.93,-170.05 -68.93,-169.98 2.75 9
8 01/18/2012 12:07:55 67.72, -1.23 67.76, -3.75 106.31 66
9 01/20/2012 14:20:50 -71.68, 139.86 -71.60, 147.57 269.75 47
10 01/20/2012 15:11:03 68.98, -48.57 68.98, -48.62 1.99 47
11 01/20/2012 16:02:01 -68.85, 118.85 -68.87, 118.88 2.44 41
12 01/20/2012 16:52:20 66.37, -70.86 66.40, -76.29 241.91 51
13 01/22/2012 19:05:14 -70.33, 70.98 -70.23, 74.37 127.69 64
14 01/22/2012 19:55:52 68.94,-119.73 68.96,-119.71 1.67 14
15 01/22/2012 20:46:50 -68.78, 47.74 -68.80, 47.72 1.77 73
16 01/22/2012 21:36:37 64.59,-140.22 64.61,-149.05 421.16 21
17 01/24/2012 22:59:52 72.89,-172.21 72.85,-159.95 401.10 25
18 01/24/2012 23:49:42 -69.18, 1.50 -69.10, 1.77 13.34 72
19 01/25/2012 00:40:40 68.87, 169.17 68.87, 169.12 2.02 17
20 01/25/2012
